Погода в Бокове

Россия / Тюменская область     56°48′09″N   70°15′50″E
темп.,
°C
ветер,
м/с
пор.,
м/с
влажн.,
%
обл.,
%
осадки,
мм/ч
давл.,
гПа
погр.,
м
6 марта, сб
сб623:00−5ююз499494 0.0 1000248
02:00−2ю51097100 1.6 997579
05:00−1юз3998100 3.8 996486
08:00−4з8149091 0.5 997696
11:00−7з8138996 0.5 1002657
14:00−7з81285100 0.0 1004779
17:00−8зюз6128589 0.1 1006783
20:00−11зюз5119137 0.0 1007244
7 марта, вс
вс723:00−12юз5129319 0.0 1009262
02:00−12зюз5129370 0.0 1009277
05:00−14зюз4109569 0.0 1012194
08:00−16зюз499423 0.0 1013155
11:00−11юз358728 0.0 1014270
14:00−9ю3488100 0.0 1014334
17:00−8юв4893100 0.0 1011431
20:00−9в51195100 0.9 1006470
8 марта, пн
пн823:00−8вюв61295100 4.3 999565
02:00+1ююз101697100 2.6 994946
05:00−10зсз81490100 3.5 996571
08:00−12з71392100 0.1 1002497
11:00−10з61089100 0.1 1006611
14:00−10з6108498 0.0 1008779
17:00−11зюз598799 0.1 1010639
20:00−13ююз51192100 0.0 1011382
9 марта, вт
вт923:00−13ююз5119398 0.1 1011391
02:00−12ююз6119299 0.1 1010430
05:00−12ююз51292100 0.1 1009436
08:00−12ююз61392100 0.1 1008473
11:00−9ююз71192100 0.1 1007565
14:00−7ююз61092100 0.1 1006660
17:00−7юз51091100 0.7 1005701
20:00−7юз51193100 0.4 1006470
10 марта, ср
ср1023:00−10юз499586 0.4 1007169
02:00−12зюз339547 0.0 100827
05:00−13юз349661 0.0 101067
08:00−14юз389492 0.0 1009155
11:00−10зюз478996 0.0 1009346
14:00−8зюз4684100 0.0 1009618
17:00−10зюз358976 0.0 1008132
20:00−15з349412 0.0 100841